Location: Deneb Observatory
(47.2267°N, 100.4953°W)
Time: 07:51:15
(UTC-06:00)

Iridium 66 - Visible Passes

Search period start: 15 December 2017 00:00
Search period end: 25 December 2017 00:00
Orbit: 776 x 779 km, 86.4° (Epoch: 14 December)

Date Brightness Start Highest point End Pass type
(mag) Time Alt. Az. Time Alt. Az. Time Alt. Az.
15 Dec 8.9 18:13:44 10° NW 18:16:10 13° WNW 18:18:37 10° WSW visible
16 Dec 8.4 17:38:59 10° NNW 17:43:01 23° W 17:47:02 10° SW visible
19 Dec 8.7 17:39:42 10° NW 17:42:55 17° WNW 17:46:09 10° WSW visible
22 Dec 8.9 17:40:55 10° NW 17:42:47 12° WNW 17:44:38 10° W visible
